Location: Petruro
(41.0333°N, 14.7833°E)
Time: 09:22:00
(UTC+00:00)

MINOTAUR 4 R/B - Pass Details

Date: 20 June 2021
Orbit: 475 x 481 km, 98.0° (Epoch: 26 July)

Event Time Altitude Azimuth Distance (km) Brightness Sun altitude
Exits shadow 01:26:05 41° 186° (S) 697 4.4 -17.4°
Maximum altitude 01:27:10 71° 258° (WSW) 507 3.9 -17.3°
Drops below altitude 10° 01:30:42 10° 343° (NNW) 1,652 7.3 -16.9°
Sets 01:32:46 0° 345° (NNW) 2,535 8.3 -16.7°
